This is the latest recevied weather packets stored in our database for station/object HASTNG-WX. If no packets are shown the sender has not sent any weather packets the latest 10 day(s).
| Time | Temp. | Humidity | Pressure | Rain* | Wind** | Luminosity | Snow |
|---|---|---|---|---|---|---|---|
| 1778020249 | 11.67° C | 36% | 980.3 hPa | 0 mm | - | - | - |
| 1778019330 | 11.67° C | 36% | 980.3 hPa | 0 mm | - | - | - |
| 1778018459 | 12.22° C | 36% | 980.3 hPa | 0 mm | - | - | - |
| 1778017530 | 12.22° C | 36% | 980 hPa | 0 mm | - | - | - |
| 1778016650 | 12.22° C | 36% | 979.7 hPa | 0 mm | - | - | - |
| 1778015729 | 12.22° C | 36% | 979.7 hPa | 0 mm | - | - | - |
| 1778014860 | 12.22° C | 36% | 979.7 hPa | 0 mm | - | - | - |
| 1778013930 | 12.22° C | 36% | 980.1 hPa | 0 mm | - | - | - |
| 1778013051 | 12.22° C | 31% | 979.1 hPa | 0 mm | - | - | - |
| 1778012130 | 12.22° C | 31% | 979.1 hPa | 0 mm | - | - | - |
| 1778011258 | 12.78° C | 31% | 979.1 hPa | 0 mm | - | - | - |
| 1778010329 | 12.78° C | 35% | 979.1 hPa | 0 mm | - | - | - |
| 1778009446 | 12.78° C | 35% | 979.1 hPa | 0 mm | - | - | - |
| 1778008532 | 12.78° C | 35% | 979.1 hPa | 0 mm | - | - | - |
| 1778007656 | 12.78° C | 35% | 979.1 hPa | 0 mm | - | - | - |
| 1778006732 | 12.78° C | 34% | 979.6 hPa | 0 mm | - | - | - |
| 1778005854 | 13.33° C | 36% | 979 hPa | 0 mm | - | - | - |
| 1778004932 | 13.33° C | 36% | 979 hPa | 0 mm | - | - | - |
| 1778004062 | 13.33° C | 36% | 979 hPa | 0 mm | - | - | - |
| 1778003131 | 12.78° C | 40% | 978.3 hPa | 0 mm | - | - | - |
| 1778002248 | 12.22° C | 38% | 977.6 hPa | 0 mm | - | - | - |
| 1778001332 | 12.78° C | 38% | 977.6 hPa | 0 mm | - | - | - |
| 1778000460 | 12.22° C | 38% | 977.6 hPa | 0 mm | - | - | - |
| 1777999532 | 11.67° C | 43% | 978.2 hPa | 0 mm | - | - | - |
| 1777998651 | 11.11° C | 46% | 976.6 hPa | 0 mm | - | - | - |
* Rain latest hour (hover to see other rain measurements)
** Current wind speed in m/s (hover to see current wind gust speed)